Time,TemperatureF,DewpointF,PressureIn,WindDirection,WindDirectionDegrees,WindSpeedMPH,WindSpeedGustMPH,Humidity,HourlyPrecipIn,Conditions,Clouds,dailyrainin,SolarRadiationWatts/m^2,SoftwareType,DateUTC
2013-03-02 00:02:00,37.1,27.0,29.79,WNW,302,0.0,-999.0,68,-99.99,,,0.00,0,weatherlink.com 1.10,2013-03-02 05:02:00,
2013-03-02 00:17:00,36.9,27.0,29.79,WNW,295,3.0,-999.0,68,-99.99,,,0.00,0,weatherlink.com 1.10,2013-03-02 05:17:00,
2013-03-02 00:32:00,36.7,27.0,29.79,NW,311,1.0,-999.0,69,-99.99,,,0.00,0,weatherlink.com 1.10,2013-03-02 05:32:00,
2013-03-02 00:47:00,36.4,27.0,29.79,WNW,290,4.0,-999.0,68,-99.99,,,0.00,0,weatherlink.com 1.10,2013-03-02 05:47:00,
2013-03-02 01:02:00,36.3,27.0,29.79,NNW,337,2.0,-999.0,69,-99.99,,,0.00,0,weatherlink.com 1.10,2013-03-02 06:02:00,
2013-03-02 01:17:00,36.1,27.0,29.79,NNW,342,4.0,-999.0,69,-99.99,,,0.00,0,weatherlink.com 1.10,2013-03-02 06:17:00,
2013-03-02 01:32:00,36.0,27.0,29.79,WNW,294,0.0,-999.0,69,-99.99,,,0.00,0,weatherlink.com 1.10,2013-03-02 06:32:00,
2013-03-02 01:47:00,35.8,27.0,29.79,West,275,4.0,-999.0,70,-99.99,,,0.00,0,weatherlink.com 1.10,2013-03-02 06:47:00,
2013-03-02 02:02:00,35.6,27.0,29.79,NNW,338,4.0,-999.0,70,-99.99,,,0.00,0,weatherlink.com 1.10,2013-03-02 07:02:00,
2013-03-02 02:17:00,35.4,27.0,29.80,NW,319,6.0,-999.0,70,-99.99,,,0.00,0,weatherlink.com 1.10,2013-03-02 07:17:00,
2013-03-02 02:32:00,35.3,27.0,29.79,West,261,3.0,-999.0,71,-99.99,,,0.00,0,weatherlink.com 1.10,2013-03-02 07:32:00,
2013-03-02 02:47:00,35.0,27.0,29.79,WNW,293,2.0,-999.0,72,-99.99,,,0.00,0,weatherlink.com 1.10,2013-03-02 07:47:00,
2013-03-02 03:02:00,34.7,27.0,29.80,WNW,302,0.0,-999.0,74,-99.99,,,0.00,0,weatherlink.com 1.10,2013-03-02 08:02:00,
2013-03-02 03:17:00,34.5,27.0,29.80,WNW,285,2.0,-999.0,74,-99.99,,,0.00,0,weatherlink.com 1.10,2013-03-02 08:17:00,
2013-03-02 03:32:00,34.4,27.0,29.80,NW,317,2.0,-999.0,73,-99.99,,,0.00,0,weatherlink.com 1.10,2013-03-02 08:32:00,
2013-03-02 03:47:00,34.4,26.0,29.80,NNW,344,2.0,-999.0,71,-99.99,,,0.00,0,weatherlink.com 1.10,2013-03-02 08:47:00,
2013-03-02 04:03:00,34.3,26.0,29.80,NNW,336,3.0,-999.0,71,-99.99,,,0.00,0,weatherlink.com 1.10,2013-03-02 09:03:00,
2013-03-02 04:18:00,34.1,26.0,29.80,WNW,294,1.0,-999.0,71,-99.99,,,0.00,0,weatherlink.com 1.10,2013-03-02 09:18:00,
2013-03-02 04:33:00,34.0,26.0,29.80,WNW,288,4.0,-999.0,71,-99.99,,,0.00,0,weatherlink.com 1.10,2013-03-02 09:33:00,
2013-03-02 04:48:00,33.9,25.0,29.80,WNW,296,2.0,-999.0,71,-99.99,,,0.00,0,weatherlink.com 1.10,2013-03-02 09:48:00,
2013-03-02 05:03:00,33.7,25.0,29.80,WNW,296,0.0,-999.0,71,-99.99,,,0.00,0,weatherlink.com 1.10,2013-03-02 10:03:00,
2013-03-02 05:18:00,33.5,25.0,29.80,WNW,297,1.0,-999.0,72,-99.99,,,0.00,0,weatherlink.com 1.10,2013-03-02 10:18:00,
2013-03-02 05:33:00,33.5,25.0,29.81,WSW,257,3.0,-999.0,72,-99.99,,,0.00,0,weatherlink.com 1.10,2013-03-02 10:33:00,
2013-03-02 05:48:00,33.3,25.0,29.80,WNW,299,2.0,-999.0,72,-99.99,,,0.00,0,weatherlink.com 1.10,2013-03-02 10:48:00,
2013-03-02 06:03:00,33.2,25.0,29.80,WNW,289,3.0,-999.0,72,-99.99,,,0.00,0,weatherlink.com 1.10,2013-03-02 11:03:00,
2013-03-02 06:18:00,32.9,25.0,29.81,NW,320,1.0,-999.0,73,-99.99,,,0.00,0,weatherlink.com 1.10,2013-03-02 11:18:00,
2013-03-02 06:33:00,32.7,25.0,29.81,West,281,3.0,-999.0,73,-99.99,,,0.00,5,weatherlink.com 1.10,2013-03-02 11:33:00,
2013-03-02 06:48:00,32.2,24.0,29.80,WNW,283,1.0,-999.0,73,-99.99,,,0.00,12,weatherlink.com 1.10,2013-03-02 11:48:00,
2013-03-02 07:03:00,31.7,24.0,29.81,WNW,290,1.0,-999.0,73,-99.99,,,0.00,25,weatherlink.com 1.10,2013-03-02 12:03:00,
2013-03-02 07:18:00,31.9,24.0,29.80,NW,314,3.0,-999.0,73,-99.99,,,0.00,63,weatherlink.com 1.10,2013-03-02 12:18:00,
2013-03-02 07:33:00,32.6,24.0,29.80,NW,308,6.0,-999.0,72,-99.99,,,0.00,137,weatherlink.com 1.10,2013-03-02 12:33:00,
2013-03-02 07:48:00,33.2,24.0,29.80,WNW,292,3.0,-999.0,70,-99.99,,,0.00,195,weatherlink.com 1.10,2013-03-02 12:48:00,
2013-03-02 08:03:00,33.8,25.0,29.80,West,273,4.0,-999.0,69,-99.99,,,0.00,251,weatherlink.com 1.10,2013-03-02 13:03:00,
2013-03-02 08:18:00,34.4,25.0,29.80,NNW,339,2.0,-999.0,68,-99.99,,,0.00,297,weatherlink.com 1.10,2013-03-02 13:18:00,
2013-03-02 08:33:00,34.9,25.0,29.80,North,350,7.0,-999.0,66,-99.99,,,0.00,346,weatherlink.com 1.10,2013-03-02 13:33:00,
2013-03-02 08:48:00,35.4,25.0,29.80,NW,321,6.0,-999.0,65,-99.99,,,0.00,390,weatherlink.com 1.10,2013-03-02 13:48:00,
2013-03-02 09:03:00,35.7,25.0,29.80,WNW,294,6.0,-999.0,64,-99.99,,,0.00,434,weatherlink.com 1.10,2013-03-02 14:03:00,
2013-03-02 09:19:00,36.1,24.0,29.80,NNE,20,3.0,-999.0,63,-99.99,,,0.00,476,weatherlink.com 1.10,2013-03-02 14:19:00,
2013-03-02 09:34:00,36.7,25.0,29.79,NW,311,8.0,-999.0,62,-99.99,,,0.00,534,weatherlink.com 1.10,2013-03-02 14:34:00,
2013-03-02 09:49:00,37.4,25.0,29.79,WNW,290,3.0,-999.0,62,-99.99,,,0.00,610,weatherlink.com 1.10,2013-03-02 14:49:00,
2013-03-02 10:04:00,37.8,25.0,29.78,North,351,3.0,-999.0,60,-99.99,,,0.00,717,weatherlink.com 1.10,2013-03-02 15:04:00,
2013-03-02 10:19:00,38.2,25.0,29.79,NNW,327,3.0,-999.0,59,-99.99,,,0.00,441,weatherlink.com 1.10,2013-03-02 15:19:00,
2013-03-02 10:34:00,38.2,25.0,29.78,WNW,294,4.0,-999.0,60,-99.99,,,0.00,345,weatherlink.com 1.10,2013-03-02 15:34:00,
2013-03-02 10:49:00,38.1,25.0,29.78,North,5,2.0,-999.0,60,-99.99,,,0.00,429,weatherlink.com 1.10,2013-03-02 15:49:00,
2013-03-02 11:04:00,38.7,26.0,29.78,West,272,3.0,-999.0,60,-99.99,,,0.00,376,weatherlink.com 1.10,2013-03-02 16:04:00,
2013-03-02 11:19:00,38.5,26.0,29.77,WSW,250,6.0,-999.0,60,-99.99,,,0.00,510,weatherlink.com 1.10,2013-03-02 16:19:00,
2013-03-02 11:34:00,39.3,26.0,29.77,West,272,4.0,-999.0,59,-99.99,,,0.00,475,weatherlink.com 1.10,2013-03-02 16:34:00,
2013-03-02 11:49:00,39.5,26.0,29.77,NNW,335,1.0,-999.0,58,-99.99,,,0.00,376,weatherlink.com 1.10,2013-03-02 16:49:00,
2013-03-02 12:04:00,39.4,26.0,29.77,WNW,288,3.0,-999.0,59,-99.99,,,0.00,425,weatherlink.com 1.10,2013-03-02 17:04:00,
2013-03-02 12:19:00,39.5,26.0,29.76,West,267,5.0,-999.0,59,-99.99,,,0.00,410,weatherlink.com 1.10,2013-03-02 17:19:00,
2013-03-02 12:34:00,39.5,26.0,29.75,North,360,3.0,-999.0,59,-99.99,,,0.00,336,weatherlink.com 1.10,2013-03-02 17:34:00,
2013-03-02 12:49:00,39.6,26.0,29.75,WNW,298,4.0,-999.0,58,-99.99,,,0.00,424,weatherlink.com 1.10,2013-03-02 17:49:00,
2013-03-02 13:04:00,40.6,26.0,29.74,West,279,4.0,-999.0,56,-99.99,,,0.00,390,weatherlink.com 1.10,2013-03-02 18:04:00,
2013-03-02 13:19:00,40.7,26.0,29.73,WNW,287,3.0,-999.0,57,-99.99,,,0.00,443,weatherlink.com 1.10,2013-03-02 18:19:00,
2013-03-02 13:34:00,40.8,26.0,29.73,NW,325,3.0,-999.0,56,-99.99,,,0.00,396,weatherlink.com 1.10,2013-03-02 18:34:00,
2013-03-02 13:49:00,40.7,26.0,29.72,North,355,2.0,-999.0,56,-99.99,,,0.00,434,weatherlink.com 1.10,2013-03-02 18:49:00,
2013-03-02 14:04:00,40.6,26.0,29.72,WNW,292,3.0,-999.0,56,-99.99,,,0.00,327,weatherlink.com 1.10,2013-03-02 19:04:00,
2013-03-02 14:19:00,40.5,26.0,29.72,West,279,5.0,-999.0,56,-99.99,,,0.00,304,weatherlink.com 1.10,2013-03-02 19:19:00,
2013-03-02 14:34:00,41.7,26.0,29.71,West,279,13.0,-999.0,54,-99.99,,,0.00,570,weatherlink.com 1.10,2013-03-02 19:34:00,
2013-03-02 14:49:00,41.5,27.0,29.71,North,360,3.0,-999.0,56,-99.99,,,0.00,728,weatherlink.com 1.10,2013-03-02 19:49:00,
2013-03-02 15:04:00,40.7,25.0,29.71,NNW,340,5.0,-999.0,55,-99.99,,,0.00,239,weatherlink.com 1.10,2013-03-02 20:04:00,
2013-03-02 15:19:00,40.4,26.0,29.71,West,280,7.0,-999.0,56,-99.99,,,0.00,232,weatherlink.com 1.10,2013-03-02 20:19:00,
2013-03-02 15:34:00,40.2,26.0,29.71,WNW,297,7.0,-999.0,57,-99.99,,,0.00,195,weatherlink.com 1.10,2013-03-02 20:34:00,
2013-03-02 15:49:00,39.7,26.0,29.72,WSW,240,3.0,-999.0,58,-99.99,,,0.00,120,weatherlink.com 1.10,2013-03-02 20:49:00,
2013-03-02 16:04:00,39.4,26.0,29.72,North,355,2.0,-999.0,58,-99.99,,,0.00,105,weatherlink.com 1.10,2013-03-02 21:04:00,
2013-03-02 16:19:00,39.2,26.0,29.72,WNW,298,4.0,-999.0,59,-99.99,,,0.00,88,weatherlink.com 1.10,2013-03-02 21:19:00,
2013-03-02 16:34:00,38.7,25.0,29.72,NW,306,3.0,-999.0,59,-99.99,,,0.00,76,weatherlink.com 1.10,2013-03-02 21:34:00,
2013-03-02 16:49:00,38.4,25.0,29.72,WNW,291,6.0,-999.0,60,-99.99,,,0.00,53,weatherlink.com 1.10,2013-03-02 21:49:00,
2013-03-02 17:04:00,38.5,26.0,29.73,West,277,3.0,-999.0,60,-99.99,,,0.00,54,weatherlink.com 1.10,2013-03-02 22:04:00,
2013-03-02 17:19:00,38.0,25.0,29.73,NW,320,2.0,-999.0,60,-99.99,,,0.00,18,weatherlink.com 1.10,2013-03-02 22:19:00,
2013-03-02 17:34:00,37.4,25.0,29.73,NW,306,3.0,-999.0,62,-99.99,,,0.00,12,weatherlink.com 1.10,2013-03-02 22:34:00,
2013-03-02 17:49:00,36.9,26.0,29.74,West,269,1.0,-999.0,64,-99.99,,,0.00,0,weatherlink.com 1.10,2013-03-02 22:49:00,
2013-03-02 18:04:00,36.6,26.0,29.75,North,351,5.0,-999.0,65,-99.99,,,0.00,0,weatherlink.com 1.10,2013-03-02 23:04:00,
2013-03-02 18:19:00,36.4,25.0,29.75,WNW,283,3.0,-999.0,64,-99.99,,,0.00,0,weatherlink.com 1.10,2013-03-02 23:19:00,
2013-03-02 18:34:00,36.3,25.0,29.76,West,280,3.0,-999.0,64,-99.99,,,0.00,0,weatherlink.com 1.10,2013-03-02 23:34:00,
2013-03-02 18:49:00,36.1,25.0,29.76,WNW,291,6.0,-999.0,65,-99.99,,,0.00,0,weatherlink.com 1.10,2013-03-02 23:49:00,
2013-03-02 19:04:00,35.9,25.0,29.76,West,275,4.0,-999.0,65,-99.99,,,0.00,0,weatherlink.com 1.10,2013-03-03 00:04:00,
2013-03-02 19:19:00,35.8,25.0,29.76,West,276,3.0,-999.0,65,-99.99,,,0.00,0,weatherlink.com 1.10,2013-03-03 00:19:00,
2013-03-02 19:34:00,35.7,25.0,29.76,NNW,329,3.0,-999.0,64,-99.99,,,0.00,0,weatherlink.com 1.10,2013-03-03 00:34:00,
2013-03-02 19:49:00,35.5,25.0,29.76,WNW,300,2.0,-999.0,65,-99.99,,,0.00,0,weatherlink.com 1.10,2013-03-03 00:49:00,
2013-03-02 20:05:00,35.3,25.0,29.76,NNW,346,2.0,-999.0,65,-99.99,,,0.00,0,weatherlink.com 1.10,2013-03-03 01:05:00,
2013-03-02 20:20:00,35.1,24.0,29.76,NW,321,4.0,-999.0,65,-99.99,,,0.00,0,weatherlink.com 1.10,2013-03-03 01:20:00,
2013-03-02 20:35:00,34.9,24.0,29.76,NW,316,3.0,-999.0,65,-99.99,,,0.00,0,weatherlink.com 1.10,2013-03-03 01:35:00,
2013-03-02 20:50:00,34.8,24.0,29.76,WNW,302,4.0,-999.0,66,-99.99,,,0.00,0,weatherlink.com 1.10,2013-03-03 01:50:00,
2013-03-02 21:05:00,34.6,24.0,29.76,WNW,302,6.0,-999.0,66,-99.99,,,0.00,0,weatherlink.com 1.10,2013-03-03 02:05:00,
2013-03-02 21:20:00,34.3,24.0,29.76,WNW,289,2.0,-999.0,67,-99.99,,,0.00,0,weatherlink.com 1.10,2013-03-03 02:20:00,
2013-03-02 21:35:00,34.0,24.0,29.76,NNW,331,1.0,-999.0,68,-99.99,,,0.00,0,weatherlink.com 1.10,2013-03-03 02:35:00,
2013-03-02 21:50:00,33.5,24.0,29.76,WNW,297,0.0,-999.0,69,-99.99,,,0.00,0,weatherlink.com 1.10,2013-03-03 02:50:00,
2013-03-02 22:05:00,33.1,24.0,29.76,NNW,340,1.0,-999.0,70,-99.99,,,0.00,0,weatherlink.com 1.10,2013-03-03 03:05:00,
2013-03-02 22:20:00,32.7,24.0,29.76,WNW,300,3.0,-999.0,71,-99.99,,,0.00,0,weatherlink.com 1.10,2013-03-03 03:20:00,
2013-03-02 22:35:00,32.4,25.0,29.76,NNW,327,4.0,-999.0,73,-99.99,,,0.00,0,weatherlink.com 1.10,2013-03-03 03:35:00,
2013-03-02 22:50:00,32.2,24.0,29.76,NW,304,3.0,-999.0,73,-99.99,,,0.00,0,weatherlink.com 1.10,2013-03-03 03:50:00,
2013-03-02 23:05:00,31.7,24.0,29.76,West,272,7.0,-999.0,73,-99.99,,,0.00,0,weatherlink.com 1.10,2013-03-03 04:05:00,
2013-03-02 23:20:00,31.4,24.0,29.76,North,5,3.0,-999.0,74,-99.99,,,0.00,0,weatherlink.com 1.10,2013-03-03 04:20:00,
2013-03-02 23:35:00,31.2,24.0,29.76,West,269,4.0,-999.0,74,-99.99,,,0.00,0,weatherlink.com 1.10,2013-03-03 04:35:00,
2013-03-02 23:50:00,31.2,24.0,29.76,WNW,291,6.0,-999.0,74,-99.99,,,0.00,0,weatherlink.com 1.10,2013-03-03 04:50:00,